timestamp,wind_dir_avg,wind_spd_avg,wind_spd_max_dir,wind_spd_gust,battery_voltage,lat,long
2022-05-23 00:04:00+00:00,213.0,8.72,212.0,9.33,12.73,47.59359,-54.27349
2022-05-23 00:14:01+00:00,217.0,7.92,214.0,8.74,12.41,47.59359,-54.27349
2022-05-23 00:24:01+00:00,218.0,8.32,221.0,9.27,12.41,47.59359,-54.27349
2022-05-23 00:34:01+00:00,218.0,8.44,218.0,9.74,12.41,47.59359,-54.27349
2022-05-23 00:44:01+00:00,210.0,9.28,209.0,10.44,12.41,47.59359,-54.27349
2022-05-23 00:54:01+00:00,211.0,9.01,207.0,10.49,12.41,47.59359,-54.27349
2022-05-23 01:04:01+00:00,209.0,9.82,208.0,10.69,12.41,47.59359,-54.27349
2022-05-23 01:14:00+00:00,212.0,9.25,212.0,10.15,12.33,47.59359,-54.27349
2022-05-23 01:24:00+00:00,210.0,9.46,211.0,10.52,12.33,47.59359,-54.27349
2022-05-23 01:34:00+00:00,207.0,9.51,211.0,10.44,12.33,47.59359,-54.27349
2022-05-23 01:44:00+00:00,205.0,9.18,206.0,9.75,12.33,47.59359,-54.27349
2022-05-23 01:54:00+00:00,203.0,9.33,205.0,10.44,12.33,47.59359,-54.27349
2022-05-23 02:04:00+00:00,202.0,8.43,200.0,9.71,12.33,47.59359,-54.27349
2022-05-23 02:14:00+00:00,202.0,8.59,204.0,9.57,12.33,47.59359,-54.27349
2022-05-23 02:24:00+00:00,212.0,7.88,213.0,8.95,12.33,47.59359,-54.27349
2022-05-23 02:34:00+00:00,211.0,9.21,212.0,10.34,12.33,47.59359,-54.27349
2022-05-23 02:44:00+00:00,211.0,9.39,214.0,10.51,12.33,47.59359,-54.27349
2022-05-23 02:54:00+00:00,221.0,9.27,223.0,10.96,12.33,47.59359,-54.27349
2022-05-23 03:04:00+00:00,217.0,9.15,219.0,10.07,12.33,47.59359,-54.27349
2022-05-23 03:14:01+00:00,207.0,8.81,201.0,9.93,12.41,47.59359,-54.27349
2022-05-23 03:24:01+00:00,209.0,9.55,207.0,11.33,12.41,47.59359,-54.27349
2022-05-23 03:34:01+00:00,211.0,9.3,206.0,11.13,12.41,47.59359,-54.27349
2022-05-23 03:44:01+00:00,217.0,9.5,218.0,10.59,12.41,47.59359,-54.27349
2022-05-23 03:54:01+00:00,216.0,9.53,223.0,10.68,12.41,47.59359,-54.27349
2022-05-23 04:04:01+00:00,210.0,9.26,211.0,10.09,12.41,47.59359,-54.27349
2022-05-23 04:14:00+00:00,213.0,8.38,213.0,9.94,12.33,47.59359,-54.27349
2022-05-23 04:24:00+00:00,204.0,8.23,200.0,9.09,12.33,47.59359,-54.27349
2022-05-23 04:34:00+00:00,214.0,9.35,220.0,10.42,12.33,47.59359,-54.27349
2022-05-23 04:44:00+00:00,208.0,9.93,207.0,11.2,12.33,47.59359,-54.27349
2022-05-23 04:54:00+00:00,204.0,8.57,202.0,9.54,12.33,47.59359,-54.27349
2022-05-23 05:04:00+00:00,206.0,8.7,212.0,9.61,12.33,47.59359,-54.27349
2022-05-23 05:14:00+00:00,204.0,8.52,202.0,9.6,12.33,47.59359,-54.27349
2022-05-23 05:24:00+00:00,210.0,9.2,215.0,11.53,12.33,47.59359,-54.27349
2022-05-23 05:34:00+00:00,212.0,9.97,215.0,11.78,12.33,47.59359,-54.27349
2022-05-23 05:44:00+00:00,211.0,10.36,215.0,11.36,12.33,47.59359,-54.27349
2022-05-23 05:54:00+00:00,214.0,10.57,214.0,12.21,12.33,47.59359,-54.27349
2022-05-23 06:04:00+00:00,217.0,10.58,216.0,12.02,12.33,47.59359,-54.27349
2022-05-23 06:14:01+00:00,211.0,10.78,216.0,12.01,12.25,47.59359,-54.27349
2022-05-23 06:24:01+00:00,212.0,10.57,215.0,11.81,12.25,47.59359,-54.27349
2022-05-23 06:34:01+00:00,211.0,9.72,210.0,11.06,12.25,47.59359,-54.27349
2022-05-23 06:44:01+00:00,210.0,9.09,213.0,9.62,12.25,47.59359,-54.27349
2022-05-23 06:54:01+00:00,204.0,8.26,202.0,9.23,12.25,47.59359,-54.27349
2022-05-23 07:04:01+00:00,203.0,8.02,206.0,9.16,12.25,47.59359,-54.27349
2022-05-23 07:14:01+00:00,204.0,8.08,207.0,8.88,12.25,47.59359,-54.27349
2022-05-23 07:24:01+00:00,209.0,6.93,207.0,7.82,12.25,47.59359,-54.27349
2022-05-23 07:34:01+00:00,209.0,8.59,207.0,9.45,12.25,47.59359,-54.27349
2022-05-23 07:44:01+00:00,200.0,9.2,200.0,10.29,12.25,47.59359,-54.27349
2022-05-23 07:54:01+00:00,204.0,8.21,215.0,9.31,12.25,47.59359,-54.27349
2022-05-23 08:04:01+00:00,205.0,8.48,207.0,10.01,12.25,47.59359,-54.27349
2022-05-23 08:14:01+00:00,206.0,7.96,203.0,9.32,12.25,47.59359,-54.27349
2022-05-23 08:24:01+00:00,211.0,7.51,210.0,8.88,12.25,47.59359,-54.27349
2022-05-23 08:34:01+00:00,221.0,8.95,223.0,11.42,12.25,47.59359,-54.27349
2022-05-23 08:44:01+00:00,222.0,10.55,231.0,11.66,12.25,47.59359,-54.27349
2022-05-23 08:54:01+00:00,218.0,8.83,218.0,10.42,12.25,47.59359,-54.27349
2022-05-23 09:04:01+00:00,214.0,9.7,217.0,11.49,12.25,47.59359,-54.27349
2022-05-23 09:14:01+00:00,215.0,9.14,211.0,10.37,12.65,47.59359,-54.27349
2022-05-23 09:24:01+00:00,212.0,10.03,213.0,11.13,12.65,47.59359,-54.27349
2022-05-23 09:34:01+00:00,206.0,9.61,210.0,10.75,12.65,47.59359,-54.27349
2022-05-23 09:44:01+00:00,214.0,9.91,217.0,11.7,12.65,47.59359,-54.27349
2022-05-23 09:54:01+00:00,208.0,10.32,208.0,11.47,12.65,47.59359,-54.27349
2022-05-23 10:04:01+00:00,215.0,10.23,216.0,11.75,12.65,47.59359,-54.27349
2022-05-23 10:14:00+00:00,210.0,10.09,215.0,11.81,13.29,47.59359,-54.27349
2022-05-23 10:24:00+00:00,211.0,11.44,209.0,13.44,13.29,47.59359,-54.27349
2022-05-23 10:34:00+00:00,212.0,8.45,213.0,9.69,13.29,47.59359,-54.27349
2022-05-23 10:44:00+00:00,215.0,10.41,214.0,12.46,13.29,47.59359,-54.27349
2022-05-23 10:54:00+00:00,211.0,11.21,211.0,12.98,13.29,47.59359,-54.27349
2022-05-23 11:04:00+00:00,215.0,11.5,213.0,13.19,13.29,47.59359,-54.27349
2022-05-23 11:14:01+00:00,218.0,10.32,216.0,12.7,13.29,47.59359,-54.27349
2022-05-23 11:24:01+00:00,217.0,10.94,217.0,12.24,13.29,47.59359,-54.27349
2022-05-23 11:34:01+00:00,216.0,10.91,220.0,12.01,13.29,47.59359,-54.27349
2022-05-23 11:44:01+00:00,210.0,11.82,208.0,13.69,13.29,47.59359,-54.27349
2022-05-23 11:54:01+00:00,208.0,11.45,213.0,13.5,13.29,47.59359,-54.27349
2022-05-23 12:04:01+00:00,212.0,10.82,212.0,12.77,13.29,47.59359,-54.27349
2022-05-23 12:14:01+00:00,216.0,11.0,216.0,12.48,14.32,47.59359,-54.27349
2022-05-23 12:24:01+00:00,225.0,9.45,227.0,10.6,14.32,47.59359,-54.27349
2022-05-23 12:34:01+00:00,226.0,10.74,236.0,13.32,14.32,47.59359,-54.27349
2022-05-23 12:44:01+00:00,231.0,14.08,235.0,16.78,14.32,47.59359,-54.27349
2022-05-23 12:54:01+00:00,221.0,9.95,217.0,11.31,14.32,47.59359,-54.27349
2022-05-23 13:04:01+00:00,228.0,12.47,238.0,17.07,14.32,47.59359,-54.27349
2022-05-23 13:14:00+00:00,218.0,10.16,216.0,11.85,13.6,47.59359,-54.27349
2022-05-23 13:24:00+00:00,217.0,9.23,218.0,10.41,13.6,47.59359,-54.27349
2022-05-23 13:34:00+00:00,216.0,12.33,217.0,14.11,13.6,47.59359,-54.27349
2022-05-23 13:44:00+00:00,212.0,11.49,214.0,12.79,13.6,47.59359,-54.27349
2022-05-23 13:54:00+00:00,212.0,11.58,212.0,13.55,13.6,47.59359,-54.27349
2022-05-23 14:04:00+00:00,212.0,10.39,213.0,11.82,13.6,47.59359,-54.27349
2022-05-23 14:14:01+00:00,211.0,12.2,213.0,13.56,13.68,47.59359,-54.27349
2022-05-23 14:24:01+00:00,212.0,13.12,211.0,15.41,13.68,47.59359,-54.27349
2022-05-23 14:34:01+00:00,213.0,12.28,225.0,14.98,13.68,47.59359,-54.27349
2022-05-23 14:44:01+00:00,211.0,11.89,216.0,13.84,13.68,47.59359,-54.27349
2022-05-23 14:54:01+00:00,218.0,12.37,232.0,16.32,13.68,47.59359,-54.27349
2022-05-23 15:04:01+00:00,217.0,13.1,231.0,16.19,13.68,47.59359,-54.27349
2022-05-23 15:14:00+00:00,215.0,12.54,223.0,16.55,13.6,47.59359,-54.27349
2022-05-23 15:24:00+00:00,220.0,11.51,221.0,13.92,13.6,47.59359,-54.27349
2022-05-23 15:34:00+00:00,218.0,8.21,219.0,9.37,13.6,47.59359,-54.27349
2022-05-23 15:44:00+00:00,211.0,11.63,199.0,13.98,13.6,47.59359,-54.27349
2022-05-23 15:54:00+00:00,215.0,11.83,221.0,13.84,13.6,47.59359,-54.27349
2022-05-23 16:04:00+00:00,217.0,11.35,229.0,13.9,13.6,47.59359,-54.27349
2022-05-23 16:14:01+00:00,217.0,9.87,224.0,10.89,13.44,47.59359,-54.27349
2022-05-23 16:24:01+00:00,216.0,10.45,218.0,12.02,13.44,47.59359,-54.27349
2022-05-23 16:34:01+00:00,216.0,10.44,217.0,12.4,13.44,47.59359,-54.27349
2022-05-23 16:44:01+00:00,215.0,11.46,215.0,13.11,13.44,47.59359,-54.27349
2022-05-23 16:54:01+00:00,216.0,10.19,218.0,12.19,13.44,47.59359,-54.27349
2022-05-23 17:04:01+00:00,210.0,10.91,206.0,11.74,13.44,47.59359,-54.27349
2022-05-23 17:14:01+00:00,207.0,8.9,205.0,9.81,13.37,47.59359,-54.27349
2022-05-23 17:24:01+00:00,211.0,8.12,213.0,8.84,13.37,47.59359,-54.27349
2022-05-23 17:34:01+00:00,209.0,9.12,202.0,10.8,13.37,47.59359,-54.27349
2022-05-23 17:44:01+00:00,206.0,9.15,206.0,10.76,13.37,47.59359,-54.27349
2022-05-23 17:54:01+00:00,205.0,8.69,206.0,9.75,13.37,47.59359,-54.27349
2022-05-23 18:04:01+00:00,207.0,7.78,206.0,8.93,13.37,47.59359,-54.27349
2022-05-23 18:14:00+00:00,212.0,8.19,216.0,9.91,13.29,47.59359,-54.27349
2022-05-23 18:24:00+00:00,212.0,9.13,212.0,10.62,13.29,47.59359,-54.27349
2022-05-23 18:34:00+00:00,218.0,9.82,225.0,11.28,13.29,47.59359,-54.27349
2022-05-23 18:44:00+00:00,218.0,10.81,221.0,13.24,13.29,47.59359,-54.27349
2022-05-23 18:54:00+00:00,220.0,10.14,227.0,11.65,13.29,47.59359,-54.27349
2022-05-23 19:04:00+00:00,216.0,12.09,232.0,16.54,13.29,47.59359,-54.27349
2022-05-23 19:14:00+00:00,213.0,12.25,222.0,15.68,13.6,47.59359,-54.27349
2022-05-23 19:24:00+00:00,217.0,11.29,232.0,16.19,13.6,47.59359,-54.27349
2022-05-23 19:34:00+00:00,219.0,10.85,220.0,12.75,13.6,47.59359,-54.27349
2022-05-23 19:44:00+00:00,212.0,10.52,213.0,11.76,13.6,47.59359,-54.27349
2022-05-23 19:54:00+00:00,216.0,10.59,219.0,12.34,13.6,47.59359,-54.27349
2022-05-23 20:04:00+00:00,213.0,9.68,219.0,11.29,13.6,47.59359,-54.27349
2022-05-23 20:14:01+00:00,215.0,10.29,213.0,12.58,13.44,47.59359,-54.27349
2022-05-23 20:24:01+00:00,221.0,10.66,220.0,12.08,13.44,47.59359,-54.27349
2022-05-23 20:34:01+00:00,221.0,9.59,225.0,11.32,13.44,47.59359,-54.27349
2022-05-23 20:44:01+00:00,212.0,7.92,225.0,10.08,13.44,47.59359,-54.27349
2022-05-23 20:54:01+00:00,210.0,8.15,222.0,10.93,13.44,47.59359,-54.27349
2022-05-23 21:04:01+00:00,213.0,7.87,209.0,8.87,13.44,47.59359,-54.27349
2022-05-23 21:14:00+00:00,214.0,8.39,213.0,9.92,12.97,47.59359,-54.27349
2022-05-23 21:24:00+00:00,210.0,8.79,216.0,10.2,12.97,47.59359,-54.27349
2022-05-23 21:34:00+00:00,209.0,8.19,212.0,9.07,12.97,47.59359,-54.27349
2022-05-23 21:44:00+00:00,216.0,6.3,218.0,7.61,12.97,47.59359,-54.27349
2022-05-23 21:54:00+00:00,218.0,6.36,219.0,7.73,12.97,47.59359,-54.27349
2022-05-23 22:04:00+00:00,214.0,7.41,216.0,8.31,12.97,47.59359,-54.27349
2022-05-23 22:14:01+00:00,216.0,6.81,217.0,7.85,12.65,47.59359,-54.27349
2022-05-23 22:24:01+00:00,215.0,5.69,225.0,6.38,12.65,47.59359,-54.27349
2022-05-23 22:34:01+00:00,215.0,6.92,218.0,7.78,12.65,47.59359,-54.27349
2022-05-23 22:44:01+00:00,217.0,5.9,217.0,6.47,12.65,47.59359,-54.27349
2022-05-23 22:54:01+00:00,219.0,6.31,221.0,7.02,12.65,47.59359,-54.27349
2022-05-23 23:04:01+00:00,224.0,5.77,227.0,6.35,12.65,47.59359,-54.27349
2022-05-23 23:14:00+00:00,225.0,5.31,225.0,5.94,12.41,47.59359,-54.27349
2022-05-23 23:24:00+00:00,315.0,0.01,241.0,0.0,12.41,47.59359,-54.27349
2022-05-23 23:34:00+00:00,233.0,7.24,235.0,8.1,12.41,47.59359,-54.27349
2022-05-23 23:44:00+00:00,241.0,6.65,240.0,7.19,12.41,47.59359,-54.27349
2022-05-23 23:54:00+00:00,239.0,7.64,248.0,9.9,12.41,47.59359,-54.27349
